Weather History for Devils Lake, ND

Change the Weather History Date:

Saturday, December 3, 2011

  Actual Average Record
Temperature  
Mean Temperature 20 °F -  
Max Temperature 30 °F 24 °F 47 °F (1967)
Min Temperature 10 °F 9 °F -20 °F (1964)
Degree Days  
Heating Degree Days 45    
Moisture  
Dew Point 15 °F    
Average Humidity 78    
Maximum Humidity 100    
Minimum Humidity 68    
Precipitation  
Precipitation 0.00 in - - ()
Sea Level Pressure  
Sea Level Pressure 29.99 in    
Wind  
Wind Speed 13 mph (NW)    
Max Wind Speed 23 mph    
Max Gust Speed 28 mph    
Visibility 10 miles    
Events      
Averages and records for this station are not official NWS values.
T = Trace of Precipitation, MM = Missing Value Source: NWS Daily Summary

Daily Weather History Graph

Daily Weather History Graph

Search for Another Location

Airport:

Trip Planner

Search our weather history database for the weather conditions in past years. The results will help you decide how hot, cold, wet, or windy it might be!

Date:

Astronomy

Dec. 03, 2011 Rise Set
Actual Time 8:07 AM CST 4:43 PM CST
Civil Twilight 7:31 AM CST 5:19 PM CST
Nautical Twilight 6:52 AM CST 5:58 PM CST
Astronomical Twilight 6:14 AM CST 6:35 PM CST
Moon 1:11 PM CST (12/3) 1:11 AM CST (12/3)
Length of Visible Light 9h 48m
Length of Day
8h 36m
Waxing Gibbous, 63% of the Moon is Illuminated
Dec 3
Waxing Gibbous
Dec 10
Full
Dec 17
Last Quarter
Dec 24
New
Jan 1
First Quarter

Hourly Weather History & Observations

Time (CST) Temp. Windchill Dew Point Humidity Pressure Visibility Wind Dir Wind Speed Gust Speed Precip Events Conditions
12:15 AM 28.4 °F 18.0 °F 24.8 °F 86% 29.81 in 10.0 mi West 12.7 mph - N/A   Clear
12:35 AM 28.4 °F 18.5 °F 24.8 °F 86% 29.82 in 10.0 mi West 11.5 mph - N/A   Clear
12:55 AM 28.4 °F 18.5 °F 24.8 °F 86% 29.82 in 10.0 mi West 11.5 mph - N/A   Partly Cloudy
1:15 AM 28.4 °F 16.6 °F 24.8 °F 86% 29.82 in 10.0 mi West 16.1 mph - N/A   Scattered Clouds
1:35 AM 30.2 °F 18.5 °F 24.8 °F 80% 29.82 in 10.0 mi West 17.3 mph - N/A   Mostly Cloudy
1:55 AM 30.2 °F 18.5 °F 26.6 °F 86% 29.83 in 10.0 mi West 17.3 mph - N/A   Overcast
2:15 AM 30.2 °F 18.9 °F 26.6 °F 86% 29.84 in 10.0 mi West 16.1 mph - N/A   Scattered Clouds
2:35 AM 30.2 °F 16.8 °F 24.8 °F 80% 29.84 in 10.0 mi West 23.0 mph 27.6 mph N/A   Clear
2:55 AM 30.2 °F 17.8 °F 24.8 °F 80% 29.85 in 10.0 mi West 19.6 mph 26.5 mph N/A   Clear
3:15 AM 28.4 °F 17.0 °F 24.8 °F 86% 29.86 in 10.0 mi West 15.0 mph - N/A   Clear
3:35 AM 28.4 °F 15.4 °F 21.2 °F 74% 29.86 in 10.0 mi West 19.6 mph - N/A   Clear
3:55 AM 28.4 °F 15.1 °F 21.2 °F 74% 29.87 in 10.0 mi WNW 20.7 mph 26.5 mph N/A   Clear
4:15 AM 26.6 °F 12.4 °F 21.2 °F 80% 29.87 in 10.0 mi West 21.9 mph 27.6 mph N/A   Clear
8:55 AM 23.0 °F 8.7 °F 15.8 °F 74% 29.99 in 10.0 mi WNW 18.4 mph - N/A   Overcast
9:15 AM 23.0 °F 8.7 °F 15.8 °F 74% 30.00 in 10.0 mi WNW 18.4 mph 21.9 mph N/A   Overcast
9:35 AM 23.0 °F 8.0 °F 15.8 °F 74% 30.01 in 10.0 mi WNW 20.7 mph - N/A   Overcast
9:55 AM 23.0 °F 9.6 °F 14.0 °F 68% 30.02 in 10.0 mi WNW 16.1 mph - N/A   Overcast
10:15 AM 23.0 °F 9.6 °F 14.0 °F 68% 30.02 in 10.0 mi NW 16.1 mph - N/A   Overcast
10:55 AM 21.2 °F 7.8 °F 15.8 °F 80% 30.05 in 10.0 mi NW 15.0 mph - N/A   Overcast
11:15 AM 21.2 °F 9.5 °F 15.8 °F 80% 30.06 in 10.0 mi NNW 11.5 mph - N/A   Overcast
11:35 AM 21.2 °F 7.3 °F 15.8 °F 80% 30.04 in 10.0 mi NNW 16.1 mph - N/A   Overcast
11:55 AM 21.2 °F 7.3 °F 12.2 °F 68% 30.04 in 10.0 mi NNW 16.1 mph - N/A   Overcast
12:15 PM 21.2 °F 7.8 °F 12.2 °F 68% 30.04 in 10.0 mi NNW 15.0 mph - N/A   Overcast
12:35 PM 21.2 °F 6.8 °F 14.0 °F 74% 30.05 in 10.0 mi North 17.3 mph - N/A   Overcast
12:55 PM 21.2 °F 8.3 °F 12.2 °F 68% 30.05 in 10.0 mi North 13.8 mph - N/A   Overcast
1:15 PM 21.2 °F 9.5 °F 14.0 °F 74% 30.05 in 10.0 mi NNW 11.5 mph - N/A   Overcast
1:35 PM 21.2 °F 8.3 °F 12.2 °F 68% 30.04 in 10.0 mi North 13.8 mph - N/A   Overcast
1:55 PM 21.2 °F 10.9 °F 14.0 °F 74% 30.06 in 10.0 mi North 9.2 mph - N/A   Overcast
2:15 PM 21.2 °F 10.1 °F 14.0 °F 74% 30.06 in 10.0 mi North 10.4 mph - N/A   Overcast
2:35 PM 21.2 °F 9.5 °F 15.8 °F 80% 30.05 in 10.0 mi NW 11.5 mph - N/A   Overcast
2:55 PM 21.2 °F 10.1 °F 14.0 °F 74% 30.05 in 10.0 mi NNW 10.4 mph - N/A   Overcast
3:15 PM 21.2 °F 8.9 °F 12.2 °F 68% 30.04 in 10.0 mi NNW 12.7 mph - N/A   Overcast
3:35 PM 21.2 °F 8.9 °F 12.2 °F 68% 30.04 in 10.0 mi NNW 12.7 mph - N/A   Overcast
3:55 PM 21.2 °F 10.1 °F 12.2 °F 68% 30.04 in 10.0 mi NNW 10.4 mph - N/A   Overcast
4:15 PM 21.2 °F 8.9 °F 14.0 °F 74% 30.04 in 10.0 mi WNW 12.7 mph - N/A   Overcast
4:35 PM 21.2 °F 11.7 °F 14.0 °F 74% 30.05 in 10.0 mi NNW 8.1 mph - N/A   Overcast
4:55 PM 21.2 °F 12.6 °F 14.0 °F 74% 30.05 in 10.0 mi NW 6.9 mph - N/A   Overcast
5:15 PM 21.2 °F 10.9 °F 14.0 °F 74% 30.06 in 10.0 mi NNW 9.2 mph - N/A   Overcast
5:35 PM 21.2 °F 10.9 °F 12.2 °F 68% 30.06 in 10.0 mi WNW 9.2 mph - N/A   Overcast
5:55 PM 21.2 °F 9.5 °F 12.2 °F 68% 30.06 in 10.0 mi NW 11.5 mph - N/A   Overcast
6:15 PM 21.2 °F 12.6 °F 12.2 °F 68% 30.06 in 10.0 mi NW 6.9 mph - N/A   Overcast
6:35 PM 19.4 °F 12.8 °F 12.2 °F 74% 30.05 in 10.0 mi NNW 4.6 mph - N/A   Mostly Cloudy
6:55 PM 19.4 °F - 14.0 °F 80% 30.05 in 10.0 mi Calm Calm - N/A   Partly Cloudy
7:15 PM 17.6 °F - 12.2 °F 79% 30.04 in 10.0 mi Calm Calm - N/A   Clear
7:35 PM 19.4 °F - 12.2 °F 74% 30.04 in 10.0 mi Calm Calm - N/A   Clear
7:55 PM 17.6 °F - 8.6 °F 68% 30.04 in 10.0 mi Calm Calm - N/A   Clear
8:15 PM 15.8 °F - 10.4 °F 79% 30.04 in 10.0 mi Calm Calm - N/A   Clear
8:35 PM 14.0 °F - 10.4 °F 86% 30.03 in 10.0 mi Calm Calm - N/A   Clear
8:55 PM 12.2 °F - 10.4 °F 92% 30.03 in 10.0 mi Calm Calm - N/A   Clear
9:15 PM 12.2 °F - 10.4 °F 92% 30.03 in 10.0 mi Calm Calm - N/A   Clear
9:35 PM 10.4 °F - 8.6 °F 92% 30.02 in 10.0 mi Calm Calm - N/A   Clear
9:55 PM 10.4 °F - 8.6 °F 92% 30.02 in 10.0 mi Calm Calm - N/A   Clear
10:15 PM 12.2 °F - 10.4 °F 92% 30.02 in 10.0 mi Calm Calm - N/A   Clear
10:35 PM 12.2 °F - 8.6 °F 85% 30.02 in 10.0 mi Calm Calm - N/A   Scattered Clouds
10:55 PM 14.0 °F 3.9 °F 6.8 °F 73% 30.03 in 10.0 mi WSW 6.9 mph - N/A   Partly Cloudy
11:15 PM 15.8 °F 8.6 °F 10.4 °F 79% 30.03 in 10.0 mi WSW 4.6 mph - N/A   Partly Cloudy
11:35 PM 15.8 °F 10.2 °F 15.8 °F 100% 30.03 in 10.0 mi WSW 3.5 mph - N/A   Mostly Cloudy
11:55 PM 15.8 °F 7.2 °F 14.0 °F 93% 30.03 in 10.0 mi WSW 5.8 mph - N/A   Scattered Clouds